FW0887 Weather Reports


time (UTC)temp
C
wind
direction
speed
KPH
gust
KPH
rain 1hr
cm
rain 24hr
cm
rain mn
cm
humidity
%
barometer
mb
20260507053053 10 210 3.2 8.0 0.00 0.99 0.03 90 1010.4
20260507051548 9 248 1.6 11.3 0.00 0.99 0.03 90 1010.3
20260507050045 9 238 4.8 12.9 0.00 0.99 0.03 90 1010.2
20260507044544 9 269 3.2 14.5 0.00 0.99 0.03 90 1009.9
20260507043040 10 235 4.8 11.3 0.00 0.99 0.03 91 1009.8
20260507041538 10 196 4.8 9.7 0.00 0.99 0.03 91 1009.5
20260507040038 10 230 3.2 8.0 0.00 0.99 0.03 91 1009.3
20260507034551 10 240 4.8 12.9 0.00 0.99 0.03 91 1009.3
20260507033038 10 194 4.8 11.3 0.00 0.99 0.03 91 1009.2
20260507032159 10 203 4.8 11.3 0.00 0.99 0.03 91 1009.8
20260507031530 10 208 4.8 9.7 0.00 0.99 0.03 91 1009.1
20260507030029 10 199 4.8 9.7 0.00 0.99 0.03 91 1009.0
20260507024546 10 219 1.6 6.4 0.00 0.99 0.03 91 1008.8
20260507023027 10 210 3.2 8.0 0.00 0.99 0.03 91 1008.9
20260507022142 10 203 3.2 6.4 0.00 0.99 0.03 91 1009.7
20260507021525 10 222 3.2 11.3 0.00 0.99 0.03 91 1008.8
20260507020026 10 217 1.6 9.7 0.03 0.99 0.03 91 1008.8
20260507014535 10 239 1.6 6.4 0.03 0.99 0.03 91 1008.7
20260507013024 10 227 1.6 6.4 0.03 0.99 0.03 91 1008.6
20260507012125 11 225 1.6 3.2 0.03 0.99 0.03 91 1009.5
20260507011536 10 218 0.0 3.2 0.03 0.99 0.03 91 1008.7
20260507010021 10 218 0.0 8.0 0.00 0.99 0.00 91 1008.6
20260507004520 10 229 1.6 6.4 0.00 0.99 0.00 91 1008.5
20260507003021 10 231 3.2 8.0 0.00 0.99 0.00 91 1008.5
20260507002211 11 225 3.2 4.8 0.00 0.99 0.00 91 1009.2
20260507001518 11 229 3.2 9.7 0.00 0.99 0.00 91 1008.5
20260507000017 11 252 3.2 8.0 0.00 0.99 0.00 91 1008.5
20260506234516 11 224 1.6 6.4 0.00 0.99 0.00 92 1008.4
20260506233015 11 223 3.2 9.7 0.00 0.99 0.00 92 1008.4
20260506232241 11 225 3.2 6.4 0.00 0.99 0.00 92 1009.0
20260506231515 11 225 1.6 6.4 0.00 0.99 0.00 92 1008.3
20260506230015 11 208 0.0 4.8 0.00 0.99 0.00 92 1008.1
20260506224515 11 208 1.6 6.4 0.00 0.99 0.00 91 1008.1
20260506223011 11 193 0.0 4.8 0.00 0.99 0.00 91 1008.1
20260506222202 11 0.0 1.6 0.03 0.99 0.00 91 1008.7
20260506221510 11 193 0.0 3.2 0.00 0.99 0.00 91 1008.1
20260506220009 11 193 0.0 4.8 0.05 0.99 0.00 91 1008.0
20260506214515 11 193 0.0 3.2 0.05 0.99 0.99 91 1007.9
20260506213009 11 193 0.0 3.2 0.05 0.99 0.99 91 1007.8
20260506212203 11 0.0 0.0 0.05 0.97 0.97 91 1007.8
20260506211506 11 92 0.0 0.0 0.05 0.99 0.99 91 1007.2
20260506210006 11 89 1.6 6.4 0.15 0.94 0.94 90 1007.0
20260506204505 11 215 0.0 0.0 0.28 0.94 0.94 90 1007.5
20260506203011 11 215 0.0 0.0 0.38 0.91 0.91 90 1007.7
20260506202200 12 0.0 0.0 0.48 0.89 0.89 90 1008.2
20260506201504 11 214 0.0 1.6 0.51 0.91 0.91 90 1007.7
20260506200005 11 215 1.6 4.8 0.43 0.79 0.79 90 1007.8
20260506194503 11 211 1.6 8.0 0.30 0.66 0.66 89 1007.5
20260506193059 12 287 0.0 4.8 0.20 0.56 0.56 89 1006.9
20260506192400 12 293 1.6 4.8 0.05 0.43 0.43 89 1006.9
20260506191600 12 267 1.6 11.3 0.08 0.43 0.43 89 1006.6
20260506190059 12 224 4.8 9.7 0.00 0.36 0.36 88 1006.0
20260506184657 12 60 0.0 3.2 0.00 0.38 0.36 88 1005.6
20260506183100 12 44 0.0 4.8 0.03 0.38 0.36 88 1005.3
20260506182332 12 45 4.8 6.4 0.18 0.38 0.36 87 1005.4
20260506181556 12 42 1.6 6.4 0.13 0.38 0.36 88 1004.9
20260506180055 12 49 3.2 6.4 0.36 0.38 0.36 87 1004.9
20260506174601 12 43 3.2 8.0 0.36 2.59 0.36 85 1005.0
20260506173125 12 288 3.2 12.9 0.33 2.57 0.33 82 1005.7
20260506172121 13 338 6.4 16.1 0.28 1.45 0.28 78 1005.4
20260506172058 15 293 9.7 16.1 0.08 2.31 0.08 73 1005.4
20260506171553 14 253 6.4 19.3 0.23 2.44 0.23 77 1005.1
20260506170052 17 310 0.0 3.2 0.00 2.21 0.00 70 1004.3
20260506164552 17 315 0.0 6.4 0.00 2.21 0.00 66 1003.9
20260506163054 17 275 1.6 4.8 0.00 2.21 0.00 65 1003.8
20260506162457 18 293 1.6 3.2 0.00 2.21 0.00 65 1004.7
20260506161550 18 286 0.0 3.2 0.00 2.21 0.00 64 1004.0
20260506160048 18 30 0.0 6.4 0.00 2.21 0.00 64 1004.0
20260506154548 18 55 0.0 9.7 0.00 2.21 0.00 64 1004.2
20260506153047 18 40 0.0 4.8 0.00 2.21 0.00 63 1004.2
20260506152127 19 293 1.6 4.8 0.00 2.21 0.00 61 1005.2
20260506151545 19 269 0.0 4.8 0.00 2.21 0.00 61 1004.2
20260506150053 19 206 1.6 3.2 0.00 2.21 0.00 63 1004.4
20260506144559 19 205 1.6 4.8 0.00 2.21 0.00 60 1004.4
20260506143051 19 206 0.0 3.2 0.00 2.21 0.00 62 1004.5
20260506142445 20 203 3.2 4.8 0.00 2.21 0.00 59 1005.5
20260506141540 19 204 1.6 6.4 0.00 2.21 0.00 60 1004.4
20260506140055 20 187 0.0 4.8 0.00 2.21 0.00 63 1004.6
20260506134538 20 187 0.0 4.8 0.00 2.21 0.00 58 1004.7
20260506133034 20 188 1.6 8.0 0.00 2.21 0.00 60 1004.7
20260506132248 19 203 1.6 3.2 0.00 2.21 0.00 66 1005.9
20260506131538 19 205 1.6 9.7 0.00 2.21 0.00 66 1005.0
20260506130028 19 227 4.8 9.7 0.00 2.21 0.00 63 1005.2
20260506124525 18 254 1.6 4.8 0.00 2.21 0.00 67 1005.4
20260506123034 17 232 1.6 8.0 0.00 2.21 0.00 65 1005.6
20260506122015 18 225 1.6 4.8 0.00 2.21 0.00 67 1006.5
20260506121521 17 218 3.2 6.4 0.00 2.21 0.00 68 1005.6
20260506120028 17 149 1.6 6.4 0.00 2.21 0.00 67 1005.6
20260506114521 18 215 4.8 9.7 0.00 2.21 0.00 67 1005.8
20260506113017 17 207 1.6 8.0 0.00 2.21 0.00 68 1005.8
20260506112314 17 203 4.8 6.4 0.00 2.21 0.00 69 1006.9
20260506111514 17 193 4.8 9.7 0.00 2.21 0.00 69 1006.0
20260506110014 17 204 1.6 11.3 0.00 2.21 0.00 69 1006.1
20260506104522 17 143 1.6 8.0 0.00 2.21 0.00 68 1006.3
20260506103012 17 171 3.2 11.3 0.00 2.21 0.00 70 1006.2
20260506102305 17 225 3.2 4.8 0.00 2.21 0.00 72 1007.3
20260506101508 17 192 1.6 9.7 0.00 2.21 0.00 72 1006.5
20260506100015 16 214 0.0 11.3 0.00 2.21 0.00 72 1006.6
20260506094506 16 232 3.2 11.3 0.00 2.21 0.00 77 1006.7
20260506093001 16 231 3.2 8.0 0.00 2.21 0.00 77 1006.6
20260506092249 15 158 1.6 4.8 0.00 2.21 0.00 76 1007.3
20260506091557 15 207 0.0 6.4 0.00 2.21 0.00 77 1006.7
20260506090056 15 175 1.6 4.8 0.00 2.21 0.00 76 1006.7
20260506084558 15 221 1.6 9.7 0.00 2.21 0.00 78 1006.8
20260506083056 14 182 1.6 6.4 0.00 2.21 0.00 80 1006.8
20260506082304 14 158 3.2 8.0 0.00 2.21 0.00 83 1007.4
20260506081603 14 165 1.6 6.4 0.00 2.21 0.00 81 1006.8
20260506073041 12 179 0.0 4.8 0.00 2.21 0.00 87 1006.6
20260506071949 12 180 1.6 3.2 0.00 2.21 0.00 89 1007.0
20260506071542 12 182 0.0 4.8 0.00 2.21 0.00 89 1006.5
20260506062349 11 0.0 3.2 0.00 2.21 0.00 91 1007.0